Location: Augustenthal
(51.7167°N, 10.2833°E)
Time: 12:09:14
(UTC+00:00)

Cosmos 1607 - Pass Details

Date: 18 May 2021
Orbit: 909 x 993 km, 65.0° (Epoch: 19 June)

Event Time Altitude Azimuth Distance (km) Brightness Sun altitude
Rises 22:38:54 0° 234° (SW) 3,681 6.8 -18.1°
Reaches altitude 10° 22:41:30 10° 237° (WSW) 2,743 6.1 -18.1°
Maximum altitude 22:47:54 63° 318° (NW) 1,105 4.5 -18.3°
Drops below altitude 10° 22:54:22 10° 40° (NE) 2,764 7.0 -18.4°
Sets 22:57:00 0° 44° (NE) 3,712 7.7 -18.4°
